Location: Waco, TX
(31.5480°N, 97.1670°W)
Time: 18:36:01
(UTC-06:00)

ISS - Pass Details

Date: 20 January 2019
Orbit: 404 x 410 km, 51.6° (Epoch: 24 January)

Event Time Altitude Azimuth Distance (km) Brightness Sun altitude
Rises 18:38:56 0° 206° (SSW) 2,311 0.7 -10.1°
Reaches altitude 10° 18:41:06 10° 196° (SSW) 1,456 -0.5 -10.6°
Maximum altitude 18:44:06 34° 130° (SE) 697 -2.9 -11.2°
Enters shadow 18:45:55 19° 76° (ENE) 1,045 -2.4 -11.6°
Drops below altitude 10° 18:47:06 10° 64° (ENE) 1,468 - -11.8°
Sets 18:49:18 0° 54° (NE) 2,332 - -12.3°
